Flag for U.S.A. Weather past 2 weeks in Austin, Texas, U.S.A.

Now
77 °F

Partly sunny.


Feels Like: 79 °F
Forecast: 68 / 87 °F
Wind: 8 mph from Southeast

Location: Camp Mabry / Austin City

Current Time: Apr 26, 2015 at 12:15:10 PM

Latest Report: Apr 26, 2015 at 11:51 AM


Visibility: 9 mi

Pressure: 29.68 "Hg

Humidity: 79%

Dew point: 70 °F

Location of AustinLocation

Historic Weather in Austin — Graph

°F

Austin temperature yesterday

Maximum temperature yesterday: 92 °F (at 3:51 PM)
Minimum temperature yesterday: 70 °F (at 7:51 AM)
Average temperature yesterday: 80 °F

Past Weeks' High & Low Weather Summary

 TemperatureHumidityPressure
High92 °F (Apr 25, 3:51 PM)100% (Apr 13, 3:51 AM)30.10 "Hg (Apr 13, 3:51 AM)
Low52 °F (Apr 21, 5:51 AM)20% (Apr 19, 5:51 PM)29.65 "Hg (Apr 25, 6:51 PM)
Average71 °F75%29.88 "Hg
* Reported Apr 11 10:51 AM — Apr 26 10:51 AM, Austin, Weather by CustomWeather, © 2015

Note: Actual official high and low records may vary slightly from our data, if they occured in-between our weather recording intervals... More about our weather records

Advertising

Austin weather history for previous 24 hours

 ConditionsComfort  
Time TempWeatherWind HumidityBarometerVisibility
10:51 AM
Sun, Apr 26
75 °FFog.7 mph88%29.70 "Hg6 mi
9:51 AM69 °FThunderstorms. Fog.6 mph96%29.72 "Hg2 mi
8:51 AM71 °FOvercast.5 mph87%29.71 "Hg7 mi
7:51 AM71 °FLow clouds.6 mph90%29.70 "Hg7 mi
6:51 AM71 °FOvercast.No wind90%29.68 "Hg7 mi
5:51 AM71 °FLow clouds.3 mph93%29.67 "Hg7 mi
4:51 AM71 °FPassing clouds.No wind90%29.67 "Hg8 mi
3:51 AM73 °FOvercast.5 mph88%29.67 "Hg10 mi
2:51 AM72 °FLow clouds.6 mph93%29.67 "Hg9 mi
1:51 AM72 °FLow clouds.9 mph91%29.68 "Hg9 mi
12:51 AM72 °FPassing clouds.5 mph84%29.69 "Hg10 mi
11:51 PM
Sat, Apr 25
73 °FClear.5 mph76%29.70 "Hg10 mi
10:51 PM75 °FClear.No wind69%29.70 "Hg10 mi
9:51 PM78 °FClear.5 mph60%29.68 "Hg10 mi
8:51 PM78 °FSunny.6 mph54%29.68 "Hg10 mi
7:51 PM82 °FSunny.5 mph44%29.66 "Hg10 mi
6:51 PM88 °FSunny.5 mph26%29.65 "Hg10 mi
5:51 PM91 °FSunny.3 mph26%29.65 "Hg10 mi
4:51 PM91 °FSunny.6 mph24%29.65 "Hg10 mi
3:51 PM92 °FSunny.10 mph21%29.67 "Hg10 mi
2:51 PM91 °FSunny.5 mph23%29.70 "Hg10 mi
1:51 PM90 °FSunny.9 mph22%29.72 "Hg10 mi
12:51 PM88 °FSunny.7 mph27%29.74 "Hg10 mi
Weather by CustomWeather, © 2015

See weather overviewHow to use our weather pages